Location: Unspecified
(0.0000°N, 0.0000°E)
Time: 11:19:08
(UTC+00:00)

A-11 Canister half - Pass Details

Date: 23 November 2019
Orbit: 1526 x 1683 km, 47.3° (Epoch: 07 December)

Event Time Altitude Azimuth Distance (km) Brightness Sun altitude
Rises 19:37:04 0° 317° (NW) 4,702 11.8 -25.8°
Reaches altitude 10° 19:40:08 10° 315° (NW) 3,707 11.2 -26.5°
Maximum altitude 19:49:26 76° 231° (SW) 1,564 9.0 -28.6°
Drops below altitude 10° 19:58:44 10° 146° (SE) 3,700 10.9 -30.8°
Sets 20:01:48 0° 144° (SE) 4,693 11.4 -31.5°
